Flag for Poland Weather past 2 weeks in Słupsk, Poland

Now
41 °F

Low clouds.


Feels Like: 38 °F
Forecast: 34 / 46 °F
Wind: 6 mph from Southeast

Location: Leba

Current Time: Oct 23, 2014 at 12:35:21 PM

Latest Report: Oct 23, 2014 at 11:00 AM


Visibility: 13 mi

Pressure: 30.20 "Hg

Humidity: 89%

Dew point: 38 °F

Location of SłupskLocation

Historic Weather in Słupsk — Graph

°F

Słupsk temperature yesterday

Maximum temperature yesterday: 55 °F (at 2:00 PM)
Minimum temperature yesterday: 45 °F (at 11:00 PM)
Average temperature yesterday: 51 °F

Past Weeks' High & Low Weather Summary

 TemperatureHumidityPressure
High68 °F (Oct 19, 3:00 PM)98% (Oct 13, 5:00 AM)30.29 "Hg (Oct 13, 5:00 AM)
Low41 °F (Oct 23, 8:00 AM)55% (Oct 8, 2:00 PM)29.54 "Hg (Oct 22, 12:00 AM)
Average54 °F89%29.86 "Hg
* Reported Oct 8 11:00 AM — Oct 23 11:00 AM, Słupsk, Weather by CustomWeather, © 2014

Note: Actual official high and low records may vary slightly from our data, if they occured in-between our weather recording intervals... More about our weather records

Advertising

Słupsk weather history for previous 24 hours

 ConditionsComfort  
Time TempWeatherWind HumidityBarometerVisibility
11:00 AM
Oct 23
41 °FLow clouds.6 mph89%30.20 "Hg12 mi
10:00 AM41 °FLow clouds.7 mph89%30.18 "Hg12 mi
9:00 AM41 °FOvercast.7 mph89%30.16 "Hg12 mi
8:00 AM41 °FOvercast.7 mph89%30.15 "Hg12 mi
7:00 AM42 °FOvercast.7 mph89%30.12 "Hg12 mi
6:00 AM42 °FOvercast.8 mph89%30.09 "Hg12 mi
5:00 AM42 °FOvercast.8 mph88%30.07 "Hg12 mi
4:00 AM43 °FOvercast.7 mph88%30.08 "Hg12 mi
3:00 AMN/APassing clouds.5 mphN/AN/A2 mi
2:00 AM44 °FOvercast.8 mph88%30.03 "Hg12 mi
1:00 AM44 °FLow clouds.7 mph90%30.01 "Hg12 mi
12:00 AM44 °FLow clouds.8 mph90%30.00 "Hg12 mi
11:00 PM
Oct 22
45 °FLow clouds.9 mph90%29.98 "Hg12 mi
10:00 PM46 °FLow clouds.7 mph91%29.96 "Hg11 mi
9:00 PM48 °FLow clouds.7 mph89%29.92 "Hg12 mi
8:00 PM48 °FOvercast.7 mph90%29.89 "Hg7 mi
7:00 PM49 °FOvercast.8 mph90%29.86 "Hg7 mi
6:00 PM50 °FOvercast.6 mph89%29.83 "Hg7 mi
5:00 PM52 °FOvercast.7 mph90%29.79 "Hg9 mi
4:00 PM53 °FOvercast.8 mph88%29.76 "Hg7 mi
3:00 PM55 °FOvercast.7 mph84%29.73 "Hg9 mi
2:00 PM55 °FOvercast.8 mph83%29.71 "Hg12 mi
1:00 PM55 °FOvercast.7 mph85%29.69 "Hg12 mi
12:00 PM55 °FOvercast.6 mph87%29.67 "Hg9 mi
Weather by CustomWeather, © 2014

See weather overviewHow to use our weather pages